Location: Krasnoyarskiy Pitomnik
(51.1333°N, 71.6167°E)
Time: 19:59:32
(UTC+00:00)

Tiros 1 despin weight - All Passes

Search period start: 12 April 2024 00:00
Search period end: 22 April 2024 00:00
Orbit: 579 x 623 km, 48.2° (Epoch: 12 April)

Date Brightness Start Highest point End Pass type
(mag) Time Alt. Az. Time Alt. Az. Time Alt. Az.
12 Apr - 10:13:45 10° SSE 10:15:47 13° SE 10:17:51 10° ESE daylight
12 Apr - 11:51:55 10° SW 11:56:05 37° SSE 12:00:19 10° E daylight
12 Apr - 13:32:26 10° WSW 13:36:56 60° S 13:41:28 10° E daylight
12 Apr - 15:13:29 10° W 15:17:52 46° SSW 15:22:15 10° SE visible
12 Apr - 16:55:09 10° W 16:58:23 19° SW 17:01:36 10° S visible
13 Apr - 10:23:15 10° S 10:26:29 20° SE 10:29:46 10° E daylight
13 Apr - 12:02:39 10° WSW 12:07:01 47° SSE 12:11:25 10° E daylight
13 Apr - 13:43:26 10° W 13:47:57 60° S 13:52:28 10° ESE daylight
13 Apr - 15:24:35 10° W 15:28:47 36° SSW 15:32:59 10° SE visible
13 Apr - 17:07:10 10° WSW 17:09:04 12° SW 17:10:59 10° SSW visible
14 Apr - 10:33:26 10° SSW 10:37:16 28° SSE 10:41:09 10° E daylight
14 Apr - 12:13:32 10° WSW 12:17:59 56° S 12:22:28 10° E daylight
14 Apr - 13:54:28 10° W 13:58:56 55° S 14:03:26 10° ESE daylight
14 Apr - 15:35:47 10° W 15:39:38 27° SSW 15:43:29 10° SSE visible
15 Apr - 09:05:46 10° SSE 09:07:50 13° SE 09:09:54 10° ESE daylight
15 Apr - 10:43:58 10° SW 10:48:07 37° SSE 10:52:20 10° E daylight
15 Apr - 12:24:29 10° WSW 12:28:58 60° S 12:33:30 10° E daylight
15 Apr - 14:05:32 10° W 14:09:54 46° SSW 14:14:17 10° SE daylight
15 Apr - 15:47:12 10° W 15:50:24 19° SW 15:53:36 10° S visible
16 Apr - 09:15:17 10° SSW 09:18:31 20° SE 09:21:48 10° E daylight
16 Apr - 10:54:42 10° WSW 10:59:02 47° SSE 11:03:26 10° E daylight
16 Apr - 12:35:29 10° W 12:39:58 60° S 12:44:29 10° ESE daylight
16 Apr - 14:16:37 10° W 14:20:48 36° SSW 14:25:00 10° SE daylight
16 Apr - 15:59:14 10° WSW 16:01:06 12° SW 16:02:56 10° SSW visible
17 Apr - 09:25:28 10° SSW 09:29:17 28° SSE 09:33:09 10° E daylight
17 Apr - 11:05:34 10° WSW 11:09:59 56° S 11:14:28 10° E daylight
17 Apr - 12:46:29 10° W 12:50:56 54° S 12:55:25 10° ESE daylight
17 Apr - 14:27:48 10° W 14:31:38 27° SSW 14:35:27 10° SSE daylight
18 Apr - 07:57:46 10° SSE 07:59:50 13° SE 08:01:53 10° ESE daylight
18 Apr - 09:35:59 10° SW 09:40:07 37° SSE 09:44:19 10° E daylight
18 Apr - 11:16:30 10° WSW 11:20:57 60° S 11:25:28 10° E daylight
18 Apr - 12:57:32 10° W 13:01:52 45° SSW 13:06:15 10° SE daylight
18 Apr - 14:39:13 10° W 14:42:23 19° SW 14:45:33 10° S daylight
19 Apr - 08:07:16 10° SSW 08:10:29 20° SE 08:13:45 10° E daylight
19 Apr - 09:46:42 10° WSW 09:51:01 47° SSE 09:55:23 10° E daylight
19 Apr - 11:27:29 10° W 11:31:56 60° S 11:36:26 10° ESE daylight
19 Apr - 13:08:36 10° W 13:12:46 35° SSW 13:16:56 10° SE daylight
19 Apr - 14:51:16 10° WSW 14:53:03 12° SW 14:54:49 10° SSW visible
20 Apr - 08:17:27 10° SSW 08:21:15 28° SSE 08:25:06 10° E daylight
20 Apr - 09:57:33 10° WSW 10:01:57 56° S 10:06:24 10° E daylight
20 Apr - 11:38:28 10° W 11:42:53 54° S 11:47:22 10° ESE daylight
20 Apr - 13:19:47 10° W 13:23:35 26° SSW 13:27:23 10° SSE daylight
21 Apr - 06:49:43 10° SSE 06:51:46 13° SE 06:53:49 10° ESE daylight
21 Apr - 08:27:57 10° SW 08:32:04 37° SSE 08:36:14 10° E daylight
21 Apr - 10:08:28 10° WSW 10:12:54 60° S 10:17:23 10° E daylight
21 Apr - 11:49:29 10° W 11:53:49 45° SSW 11:58:10 10° SE daylight
21 Apr - 13:31:11 10° W 13:34:18 18° SW 13:37:26 10° S daylight
